sat.trackr.live / text

‹ back to catalog

ION SCV-004

NORAD 50993 · 2022-002K

PAYLOAD ACTIVE UNKNOWN

§ Identity

Operator
Country
IT
Launch date
2022-01-13
Launch site
AFETR
Launch vehicle
Mass (kg)
RCS (m²)

External: N2YO · Heavens-Above · Gunter

§ Orbital elements

Epoch: 2026-05-25T03:40:06.069792Z

Period
94.11 min
Inclination
97.2849°
Eccentricity
0.0009074
Mean motion
15.30183853 rev/d
Perigee alt
469.0 km
Apogee alt
481.5 km
Semi-major
6,853.4 km
B*
1.6634e-4
RAAN
203.2468°
Arg perigee
80.1676°
Mean anomaly
280.0589°
Rev number
24,177

§ Raw data

ION SCV-0041 50993U 22002K   26145.15284803  .00004788  00000+0  16634-3 0  99902 50993  97.2849 203.2468 0009074  80.1676 280.0589 15.30183853241770

JSON: /api/v1/satellites/50993 · /tle

For live sub-satellite position, see the globe view (requires WebGL).

§ Visibility from observer

Set your observer location to see the next 7 days of passes ≥ 10°. The values pass through the URL so the page stays shareable.

No JS? Fill the form by hand. The geolocation button needs JavaScript.

§ Radio — SatNOGS DB

ModeDescriptionDownlinkUplink
FSK AX.100 Mode 5 Mode U - FSK 1k2 AX.100 437.515 MHz
FSK AX.100 Mode 5 Mode U - FSK1k2 AX.100 401.415 MHz
BPSK S-Band Transmitter 2.262 GHz

3 transmitters · refreshed weekly from db.satnogs.org